Location: Helsinki
(60.1699°N, 24.9384°E)
Time: 17:04:52
(UTC+02:00)

S-56A Canister/Altair - Pass Details

Date: 27 October 2020
Orbit: 633 x 2500 km, 38.9° (Epoch: 29 November)

Event Time Altitude Azimuth Distance (km) Brightness Sun altitude
Rises 07:42:06 0° 218° (SW) 3,774 11.0 0.4°
Reaches altitude 10° 07:45:38 10° 198° (SSW) 3,122 10.8 0.8°
Maximum altitude 07:50:11 17° 162° (SSE) 3,029 11.4 1.3°
Drops below altitude 10° 07:55:43 10° 128° (SE) 3,964 13.4 1.9°
Sets 08:01:10 0° 112° (ESE) 5,356 14.2 2.4°
